Ukiah, CA

10:13 AM PDT on September 29, 2016 (GMT -0700)
Ukiah Municipal

Weather History for KUKI - December, 2013

Change the Weather History Date:

Thursday, December 5, 2013

  Actual Average Record
Temperature  
Mean Temperature 36 °F 46 °F  
Max Temperature 50 °F 56 °F 79 °F (1925)
Min Temperature 21 °F 36 °F 21 °F (2013)
Degree Days  
Heating Degree Days 29 19  
Month to date heating degree days 105 93  
Since 1 July heating degree days 630 716  
Cooling Degree Days 0 0  
Month to date cooling degree days 0 0  
Year to date cooling degree days 974 835  
Moisture  
Dew Point 21 °F    
Average Humidity 61    
Maximum Humidity 88    
Minimum Humidity 33    
Precipitation  
Precipitation 0.00 in 0.18 in 2.32 in (1996)
Month to date precipitation T 0.78  
Year to date precipitation 7.01 31.18  
Since 1 July precipitation 1.43  
Snow  
Snow 0.00 in - - ()
Month to date snowfall 0.0  
Since 1 July snowfall 0.0  
Snow Depth 0.00 in    
Sea Level Pressure  
Sea Level Pressure 30.13 in    
Wind  
Wind Speed 0 mph (SW)    
Max Wind Speed 6 mph    
Max Gust Speed 7 mph    
Visibility 10 miles    
Events      
T = Trace of Precipitation, MM = Missing Value Source: NWS Daily Summary

Daily Weather History Graph

Daily Weather History Graph

Search for Another Location

Airport or City:

Trip Planner

Search our weather history database for the weather conditions in past years. The results will help you decide how hot, cold, wet, or windy it might be!

Date:

Astronomy

Dec. 05, 2013 Rise Set
Actual Time 7:17 AM PST 4:49 PM PST
Civil Twilight 6:47 AM PST 5:19 PM PST
Nautical Twilight 6:14 AM PST 5:53 PM PST
Astronomical Twilight 5:41 AM PST 6:25 PM PST
Moon 9:42 AM PST (12/5) 8:16 PM PST (12/5)
Length of Visible Light 10h 32m
Length of Day
9h 32m
Waxing Crescent, 11% of the Moon is Illuminated
Dec 5
Waxing Crescent
Dec 9
First Quarter
Dec 17
Full
Dec 25
Last Quarter
Jan 1
New

Hourly Weather History & Observations

Time (PST) Temp. Windchill Dew Point Humidity Pressure Visibility Wind Dir Wind Speed Gust Speed Precip Events Conditions
12:56 AM 26.1 °F - 21.9 °F 84% 30.11 in 9.0 mi Calm Calm - N/A   Clear
1:56 AM 26.1 °F - 21.9 °F 84% 30.11 in 9.0 mi Calm Calm - N/A   Clear
2:56 AM 25.0 °F - 21.0 °F 85% 30.12 in 10.0 mi Calm Calm - N/A   Clear
3:56 AM 23.0 °F - 19.0 °F 85% 30.12 in 9.0 mi Calm Calm - N/A   Clear
4:56 AM 23.0 °F - 19.9 °F 88% 30.13 in 9.0 mi Calm Calm - N/A   Clear
5:56 AM 21.9 °F - 18.0 °F 85% 30.14 in 9.0 mi Calm Calm - N/A   Clear
6:56 AM 21.0 °F - 18.0 °F 88% 30.15 in 10.0 mi Calm Calm - N/A   Clear
7:56 AM 23.0 °F - 19.9 °F 88% 30.16 in 9.0 mi Calm Calm - N/A   Clear
8:56 AM 28.0 °F - 23.0 °F 81% 30.17 in 9.0 mi Calm Calm - N/A   Clear
9:56 AM 34.0 °F - 25.0 °F 70% 30.18 in 10.0 mi Calm Calm - N/A   Clear
10:56 AM 39.0 °F - 24.1 °F 55% 30.17 in 10.0 mi Calm Calm - N/A   Clear
11:56 AM 43.0 °F - 21.9 °F 43% 30.14 in 10.0 mi Calm Calm - N/A   Clear
12:56 PM 46.0 °F - 19.9 °F 35% 30.12 in 10.0 mi Calm Calm - N/A   Clear
1:56 PM 46.9 °F - 21.9 °F 37% 30.09 in 10.0 mi Calm Calm - N/A   Clear
2:56 PM 50.0 °F - 23.0 °F 35% 30.09 in 10.0 mi Calm Calm - N/A   Clear
3:56 PM 44.1 °F 41.5 °F 24.1 °F 45% 30.10 in 10.0 mi West 4.6 mph - N/A   Clear
4:56 PM 41.0 °F - 21.9 °F 47% 30.10 in 10.0 mi Calm Calm - N/A   Clear
5:56 PM 39.0 °F 36.8 °F 21.9 °F 50% 30.12 in 10.0 mi South 3.5 mph - N/A   Clear
6:56 PM 36.0 °F - 21.9 °F 57% 30.13 in 10.0 mi Calm Calm - N/A   Clear
7:56 PM 34.0 °F - 21.9 °F 61% 30.14 in 10.0 mi Calm Calm - N/A   Clear
8:56 PM 30.0 °F - 21.9 °F 72% 30.16 in 10.0 mi Calm Calm - N/A   Clear
9:56 PM 27.0 °F - 21.0 °F 78% 30.16 in 10.0 mi Calm Calm - N/A   Clear
10:56 PM 27.0 °F - 21.0 °F 78% 30.16 in 10.0 mi Calm Calm - N/A   Clear
11:56 PM 26.1 °F - 19.9 °F 78% 30.16 in 10.0 mi Calm Calm - N/A   Clear